"Period start","avg(HW err(1)/warn(2) (#))","avg(Visibility (m))","avg(Weather code (#))","avg(Precip intensity (mm/h))","min(HW err(1)/warn(2) (#))","max(HW err(1)/warn(2) (#))","std(HW err(1)/warn(2) (#))","med(HW err(1)/warn(2) (#))","min(Visibility (m))","max(Visibility (m))","std(Visibility (m))","med(Visibility (m))","min(Weather code (#))","max(Weather code (#))","std(Weather code (#))","med(Weather code (#))","min(Precip intensity (mm/h))","max(Precip intensity (mm/h))","std(Precip intensity (mm/h))","med(Precip intensity (mm/h))"
2013-07-23 00:00:00,2,43935,0,0.00,2,2,0,2,34828,50000,6317,46600,0,0,0,0,0.00,0.00,0.00,0.00
2013-07-23 00:10:00,2,47104,0,0.00,2,2,0,2,36863,50000,4144,49474,0,0,0,0,0.00,0.00,0.00,0.00
2013-07-23 00:20:00,2,39763,0,0.00,2,2,0,2,28812,50000,6862,39540,0,0,0,0,0.00,0.00,0.00,0.00
2013-07-23 00:30:00,2,47255,0,0.00,2,2,0,2,40318,50000,3543,48776,0,0,0,0,0.00,0.00,0.00,0.00
2013-07-23 00:40:00,2,42246,0,0.00,2,2,0,2,36726,50000,4199,42090,0,0,0,0,0.00,0.00,0.00,0.00
2013-07-23 00:50:00,2,42262,0,0.00,2,2,0,2,35735,50000,5329,40775,0,0,0,0,0.00,0.00,0.00,0.00
2013-07-23 01:00:00,2,42019,0,0.00,2,2,0,2,35123,46408,4020,43952,0,0,0,0,0.00,0.00,0.00,0.00
2013-07-23 01:10:00,2,46352,0,0.00,2,2,0,2,40584,50000,4053,48612,0,0,0,0,0.00,0.00,0.00,0.00
2013-07-23 01:20:00,2,47686,0,0.00,2,2,0,2,41313,50000,3303,49720,0,0,0,0,0.00,0.00,0.00,0.00
2013-07-23 01:30:00,2,46781,0,0.00,2,2,0,2,40185,50000,3975,49738,0,0,0,0,0.00,0.00,0.00,0.00
2013-07-23 01:40:00,2,45272,0,0.00,2,2,0,2,35711,50000,4876,47496,0,0,0,0,0.00,0.00,0.00,0.00
2013-07-23 01:50:00,2,41972,0,0.00,2,2,0,2,29519,50000,5962,42059,0,0,0,0,0.00,0.00,0.00,0.00
2013-07-23 02:00:00,2,47124,0,0.00,2,2,0,2,38212,50000,3889,49240,0,0,0,0,0.00,0.00,0.00,0.00
2013-07-23 02:10:00,2,49029,0,0.00,2,2,0,2,44036,50000,2005,50000,0,0,0,0,0.00,0.00,0.00,0.00
2013-07-23 02:20:00,2,40422,0,0.00,2,2,0,2,24837,50000,9057,40646,0,0,0,0,0.00,0.00,0.00,0.00
2013-07-23 02:30:00,2,47465,0,0.00,2,2,0,2,39819,50000,3812,49862,0,0,0,0,0.00,0.00,0.00,0.00
2013-07-23 02:40:00,2,43413,0,0.00,2,2,0,2,35891,49175,3852,43716,0,0,0,0,0.00,0.00,0.00,0.00
2013-07-23 02:50:00,2,42714,0,0.00,2,2,0,2,31531,50000,6771,41845,0,0,0,0,0.00,0.00,0.00,0.00
2013-07-23 03:00:00,2,42941,0,0.00,2,2,0,2,32193,50000,5353,43187,0,0,0,0,0.00,0.00,0.00,0.00
2013-07-23 03:10:00,2,42008,0,0.00,2,2,0,2,31935,50000,5878,42314,0,0,0,0,0.00,0.00,0.00,0.00
2013-07-23 03:20:00,2,45486,0,0.00,2,2,0,2,36329,50000,4648,46776,0,0,0,0,0.00,0.00,0.00,0.00
2013-07-23 03:30:00,2,45977,0,0.00,2,2,0,2,36683,50000,4407,47568,0,0,0,0,0.00,0.00,0.00,0.00
2013-07-23 03:40:00,2,46655,0,0.00,2,2,0,2,39734,50000,3688,47558,0,0,0,0,0.00,0.00,0.00,0.00
2013-07-23 03:50:00,2,46654,0,0.00,2,2,0,2,41290,50000,3983,49692,0,0,0,0,0.00,0.00,0.00,0.00
2013-07-23 04:00:00,2,46864,0,0.00,2,2,0,2,42259,50000,3240,48231,0,0,0,0,0.00,0.00,0.00,0.00
2013-07-23 04:10:00,2,46442,0,0.00,2,2,0,2,38362,50000,3810,47313,0,0,0,0,0.00,0.00,0.00,0.00
2013-07-23 04:20:00,2,48573,0,0.00,2,2,0,2,42496,50000,2858,50000,0,0,0,0,0.00,0.00,0.00,0.00
2013-07-23 04:30:00,2,47672,0,0.00,2,2,0,2,43989,50000,1975,47984,0,0,0,0,0.00,0.00,0.00,0.00
2013-07-23 04:40:00,2,44347,0,0.00,2,2,0,2,35237,50000,4403,44263,0,0,0,0,0.00,0.00,0.00,0.00
2013-07-23 04:50:00,2,48068,0,0.00,0,2,1,2,40291,50000,3516,50000,0,0,0,0,0.00,0.00,0.00,0.00
2013-07-23 05:00:00,2,47951,0,0.00,2,2,0,2,42681,50000,2708,50000,0,0,0,0,0.00,0.00,0.00,0.00
2013-07-23 05:10:00,2,46041,0,0.00,2,2,0,2,35903,50000,5579,50000,0,0,0,0,0.00,0.00,0.00,0.00
2013-07-23 05:20:00,0,43946,0,0.00,0,2,1,0,28709,50000,7255,46398,0,0,0,0,0.00,0.00,0.00,0.00
2013-07-23 05:30:00,0,48533,0,0.00,0,0,0,0,43078,50000,2390,50000,0,0,0,0,0.00,0.00,0.00,0.00
2013-07-23 05:40:00,1,48848,0,0.00,0,2,1,2,45818,50000,1355,49156,0,0,0,0,0.00,0.00,0.00,0.00
2013-07-23 05:50:00,0,46761,0,0.00,0,2,1,0,40257,50000,3887,49443,0,0,0,0,0.00,0.00,0.00,0.00
2013-07-23 06:00:00,1,48317,0,0.00,0,2,1,0,40432,50000,2957,50000,0,0,0,0,0.00,0.00,0.00,0.00
2013-07-23 06:10:00,1,47751,0,0.00,0,2,1,1,41070,50000,3337,50000,0,0,0,0,0.00,0.00,0.00,0.00
2013-07-23 06:20:00,1,45953,0,0.00,0,2,1,0,39815,50000,4327,47858,0,0,0,0,0.00,0.00,0.00,0.00
2013-07-23 06:30:00,0,48020,0,0.00,0,0,0,0,38339,50000,3719,50000,0,0,0,0,0.00,0.00,0.00,0.00
2013-07-23 06:40:00,0,45857,0,0.00,0,0,0,0,31106,50000,5718,48620,0,0,0,0,0.00,0.00,0.00,0.00
2013-07-23 06:50:00,0,48440,0,0.00,0,0,0,0,45959,50000,1548,48638,0,0,0,0,0.00,0.00,0.00,0.00
2013-07-23 07:00:00,0,47188,0,0.00,0,0,0,0,42024,50000,3311,49388,0,0,0,0,0.00,0.00,0.00,0.00
2013-07-23 07:10:00,0,45241,0,0.00,0,0,0,0,38143,50000,3927,46501,0,0,0,0,0.00,0.00,0.00,0.00
2013-07-23 07:20:00,0,49288,0,0.00,0,0,0,0,45535,50000,1427,50000,0,0,0,0,0.00,0.00,0.00,0.00
2013-07-23 07:30:00,0,48601,0,0.00,0,0,0,0,43317,50000,2066,49914,0,0,0,0,0.00,0.00,0.00,0.00
2013-07-23 07:40:00,0,41856,0,0.00,0,0,0,0,22298,50000,8659,42726,0,0,0,0,0.00,0.00,0.00,0.00
2013-07-23 07:50:00,0,49862,0,0.00,0,0,0,0,48618,50000,415,50000,0,0,0,0,0.00,0.00,0.00,0.00
2013-07-23 08:00:00,0,47748,0,0.00,0,0,0,0,37507,50000,4392,50000,0,0,0,0,0.00,0.00,0.00,0.00
2013-07-23 08:10:00,0,47606,0,0.00,0,0,0,0,42400,50000,2324,47764,0,0,0,0,0.00,0.00,0.00,0.00
2013-07-23 08:20:00,0,48239,0,0.00,0,0,0,0,43405,50000,2544,49872,0,0,0,0,0.00,0.00,0.00,0.00
2013-07-23 08:30:00,0,49464,0,0.00,0,0,0,0,44637,50000,1609,50000,0,0,0,0,0.00,0.00,0.00,0.00
2013-07-23 08:40:00,0,46395,0,0.00,0,0,0,0,30906,50000,5657,49255,0,0,0,0,0.00,0.00,0.00,0.00
2013-07-23 08:50:00,0,47366,0,0.00,0,0,0,0,41861,50000,3044,49200,0,0,0,0,0.00,0.00,0.00,0.00
2013-07-23 09:00:00,0,49131,0,0.00,0,0,0,0,46165,50000,1381,50000,0,0,0,0,0.00,0.00,0.00,0.00
2013-07-23 09:10:00,0,48216,0,0.00,0,0,0,0,42921,50000,2295,49602,0,0,0,0,0.00,0.00,0.00,0.00
2013-07-23 09:20:00,0,48840,0,0.00,0,0,0,0,44467,50000,1838,50000,0,0,0,0,0.00,0.00,0.00,0.00
2013-07-23 09:30:00,0,45851,0,0.00,0,0,0,0,37231,50000,4423,47160,0,0,0,0,0.00,0.00,0.00,0.00
2013-07-23 09:40:00,0,48489,0,0.00,0,0,0,0,43564,50000,1970,49168,0,0,0,0,0.00,0.00,0.00,0.00
2013-07-23 09:50:00,0,48958,0,0.00,0,0,0,0,40556,50000,2816,50000,0,0,0,0,0.00,0.00,0.00,0.00
2013-07-23 10:00:00,0,48216,0,0.00,0,0,0,0,40916,50000,3068,50000,0,0,0,0,0.00,0.00,0.00,0.00
2013-07-23 10:10:00,0,48208,0,0.00,0,0,0,0,37995,50000,3690,50000,0,0,0,0,0.00,0.00,0.00,0.00
2013-07-23 10:20:00,0,44512,0,0.00,0,0,0,0,33312,50000,5593,45980,0,0,0,0,0.00,0.00,0.00,0.00
2013-07-23 10:30:00,0,48689,0,0.00,0,0,0,0,45037,50000,2006,50000,0,0,0,0,0.00,0.00,0.00,0.00
2013-07-23 10:40:00,0,49266,0,0.00,0,0,0,0,43967,50000,1809,50000,0,0,0,0,0.00,0.00,0.00,0.00
2013-07-23 10:50:00,0,49347,0,0.00,0,0,0,0,43466,50000,1960,50000,0,0,0,0,0.00,0.00,0.00,0.00
2013-07-23 11:00:00,0,47954,0,0.00,0,0,0,0,43947,50000,2472,49753,0,0,0,0,0.00,0.00,0.00,0.00
2013-07-23 11:10:00,0,49734,0,0.00,0,0,0,0,48211,50000,570,50000,0,0,0,0,0.00,0.00,0.00,0.00
2013-07-23 11:20:00,0,49024,0,0.00,0,0,0,0,42683,50000,2236,50000,0,0,0,0,0.00,0.00,0.00,0.00
2013-07-23 11:30:00,0,50000,0,0.00,0,0,0,0,50000,50000,0,50000,0,0,0,0,0.00,0.00,0.00,0.00
2013-07-23 11:40:00,0,49973,0,0.00,0,0,0,0,49726,50000,82,50000,0,0,0,0,0.00,0.00,0.00,0.00
2013-07-23 11:50:00,2,49190,0,0.00,0,2,1,2,45952,50000,1364,50000,0,0,0,0,0.00,0.00,0.00,0.00
2013-07-23 12:00:00,2,49568,0,0.00,2,2,0,2,46810,50000,979,50000,0,0,0,0,0.00,0.00,0.00,0.00
2013-07-23 12:10:00,2,49921,0,0.00,2,2,0,2,49208,50000,238,50000,0,0,0,0,0.00,0.00,0.00,0.00
2013-07-23 12:20:00,2,49182,0,0.00,2,2,0,2,45325,50000,1610,50000,0,0,0,0,0.00,0.00,0.00,0.00
2013-07-23 12:30:00,2,49998,0,0.00,0,2,1,2,49984,50000,5,50000,0,0,0,0,0.00,0.00,0.00,0.00
2013-07-23 12:40:00,1,49867,0,0.00,0,2,1,2,48671,50000,399,50000,0,0,0,0,0.00,0.00,0.00,0.00
2013-07-23 12:50:00,1,49916,0,0.00,0,2,1,1,49156,50000,253,50000,0,0,0,0,0.00,0.00,0.00,0.00
2013-07-23 13:00:00,2,49938,0,0.00,0,2,1,2,49383,50000,185,50000,0,0,0,0,0.00,0.00,0.00,0.00
2013-07-23 13:10:00,2,50000,0,0.00,2,2,0,2,50000,50000,0,50000,0,0,0,0,0.00,0.00,0.00,0.00
2013-07-23 13:20:00,2,49757,0,0.00,2,2,0,2,48077,50000,580,50000,0,0,0,0,0.00,0.00,0.00,0.00
2013-07-23 13:30:00,2,50000,0,0.00,2,2,0,2,50000,50000,0,50000,0,0,0,0,0.00,0.00,0.00,0.00
2013-07-23 13:40:00,2,50000,0,0.00,2,2,0,2,50000,50000,0,50000,0,0,0,0,0.00,0.00,0.00,0.00
2013-07-23 13:50:00,2,50000,0,0.00,2,2,0,2,50000,50000,0,50000,0,0,0,0,0.00,0.00,0.00,0.00
2013-07-23 14:00:00,2,50000,0,0.00,2,2,0,2,50000,50000,0,50000,0,0,0,0,0.00,0.00,0.00,0.00
2013-07-23 14:10:00,2,50000,0,0.00,2,2,0,2,50000,50000,0,50000,0,0,0,0,0.00,0.00,0.00,0.00
2013-07-23 14:20:00,2,50000,0,0.00,2,2,0,2,50000,50000,0,50000,0,0,0,0,0.00,0.00,0.00,0.00
2013-07-23 14:30:00,2,50000,0,0.00,2,2,0,2,50000,50000,0,50000,0,0,0,0,0.00,0.00,0.00,0.00
2013-07-23 14:40:00,2,50000,0,0.00,2,2,0,2,50000,50000,0,50000,0,0,0,0,0.00,0.00,0.00,0.00
2013-07-23 14:50:00,2,50000,0,0.00,2,2,0,2,50000,50000,0,50000,0,0,0,0,0.00,0.00,0.00,0.00
2013-07-23 15:00:00,2,50000,0,0.00,2,2,0,2,50000,50000,0,50000,0,0,0,0,0.00,0.00,0.00,0.00
2013-07-23 15:10:00,2,50000,0,0.00,2,2,0,2,50000,50000,0,50000,0,0,0,0,0.00,0.00,0.00,0.00
2013-07-23 15:20:00,2,50000,0,0.00,2,2,0,2,50000,50000,0,50000,0,0,0,0,0.00,0.00,0.00,0.00
2013-07-23 15:30:00,2,50000,0,0.00,2,2,0,2,50000,50000,0,50000,0,0,0,0,0.00,0.00,0.00,0.00
2013-07-23 15:40:00,2,50000,0,0.00,2,2,0,2,50000,50000,0,50000,0,0,0,0,0.00,0.00,0.00,0.00
2013-07-23 15:50:00,2,50000,0,0.00,2,2,0,2,50000,50000,0,50000,0,0,0,0,0.00,0.00,0.00,0.00
2013-07-23 16:00:00,2,50000,0,0.00,2,2,0,2,50000,50000,0,50000,0,0,0,0,0.00,0.00,0.00,0.00
2013-07-23 16:10:00,2,50000,0,0.00,2,2,0,2,50000,50000,0,50000,0,0,0,0,0.00,0.00,0.00,0.00
2013-07-23 16:20:00,2,50000,0,0.00,2,2,0,2,50000,50000,0,50000,0,0,0,0,0.00,0.00,0.00,0.00
2013-07-23 16:30:00,2,50000,0,0.00,2,2,0,2,50000,50000,0,50000,0,0,0,0,0.00,0.00,0.00,0.00
2013-07-23 16:40:00,2,50000,0,0.00,2,2,0,2,50000,50000,0,50000,0,0,0,0,0.00,0.00,0.00,0.00
2013-07-23 16:50:00,2,50000,0,0.00,2,2,0,2,50000,50000,0,50000,0,0,0,0,0.00,0.00,0.00,0.00
2013-07-23 17:00:00,2,50000,0,0.00,2,2,0,2,50000,50000,0,50000,0,0,0,0,0.00,0.00,0.00,0.00
2013-07-23 17:10:00,2,50000,0,0.00,2,2,0,2,50000,50000,0,50000,0,0,0,0,0.00,0.00,0.00,0.00
2013-07-23 17:20:00,2,50000,0,0.00,2,2,0,2,50000,50000,0,50000,0,0,0,0,0.00,0.00,0.00,0.00
2013-07-23 17:30:00,2,50000,0,0.00,2,2,0,2,50000,50000,0,50000,0,0,0,0,0.00,0.00,0.00,0.00
2013-07-23 17:40:00,2,50000,0,0.00,2,2,0,2,50000,50000,0,50000,0,0,0,0,0.00,0.00,0.00,0.00
2013-07-23 17:50:00,2,50000,0,0.00,2,2,0,2,50000,50000,0,50000,0,0,0,0,0.00,0.00,0.00,0.00
2013-07-23 18:00:00,2,50000,0,0.00,2,2,0,2,50000,50000,0,50000,0,0,0,0,0.00,0.00,0.00,0.00
2013-07-23 18:10:00,2,50000,0,0.00,2,2,0,2,50000,50000,0,50000,0,0,0,0,0.00,0.00,0.00,0.00
2013-07-23 18:20:00,2,50000,0,0.00,2,2,0,2,50000,50000,0,50000,0,0,0,0,0.00,0.00,0.00,0.00
2013-07-23 18:30:00,2,50000,0,0.00,2,2,0,2,50000,50000,0,50000,0,0,0,0,0.00,0.00,0.00,0.00
2013-07-23 18:40:00,2,50000,0,0.00,2,2,0,2,50000,50000,0,50000,0,0,0,0,0.00,0.00,0.00,0.00
2013-07-23 18:50:00,2,50000,0,0.00,2,2,0,2,50000,50000,0,50000,0,0,0,0,0.00,0.00,0.00,0.00
2013-07-23 19:00:00,2,50000,0,0.00,2,2,0,2,50000,50000,0,50000,0,0,0,0,0.00,0.00,0.00,0.00
2013-07-23 19:10:00,2,50000,0,0.00,2,2,0,2,50000,50000,0,50000,0,0,0,0,0.00,0.00,0.00,0.00
2013-07-23 19:20:00,2,50000,0,0.00,2,2,0,2,50000,50000,0,50000,0,0,0,0,0.00,0.00,0.00,0.00
2013-07-23 19:30:00,2,50000,0,0.00,2,2,0,2,50000,50000,0,50000,0,0,0,0,0.00,0.00,0.00,0.00
2013-07-23 19:40:00,2,50000,0,0.00,2,2,0,2,50000,50000,0,50000,0,0,0,0,0.00,0.00,0.00,0.00
2013-07-23 19:50:00,2,49761,0,0.00,2,2,0,2,47606,50000,718,50000,0,0,0,0,0.00,0.00,0.00,0.00
2013-07-23 20:00:00,2,48865,0,0.00,2,2,0,2,44612,50000,2001,50000,0,0,0,0,0.00,0.00,0.00,0.00
2013-07-23 20:10:00,2,48585,0,0.00,2,2,0,2,42984,50000,2338,50000,0,0,0,0,0.00,0.00,0.00,0.00
2013-07-23 20:20:00,2,49697,0,0.00,2,2,0,2,48438,50000,606,50000,0,0,0,0,0.00,0.00,0.00,0.00
2013-07-23 20:30:00,2,49021,0,0.00,2,2,0,2,40334,50000,2896,50000,0,0,0,0,0.00,0.00,0.00,0.00
2013-07-23 20:40:00,1,49908,0,0.00,0,2,1,1,49441,50000,190,50000,0,0,0,0,0.00,0.00,0.00,0.00
2013-07-23 20:50:00,2,48618,0,0.00,0,2,1,2,42399,50000,2781,50000,0,0,0,0,0.00,0.00,0.00,0.00
2013-07-23 21:00:00,2,47424,0,0.00,2,2,0,2,40364,50000,3783,50000,0,0,0,0,0.00,0.00,0.00,0.00
2013-07-23 21:10:00,1,44698,0,0.00,0,2,1,0,33677,50000,6065,47466,0,0,0,0,0.00,0.00,0.00,0.00
2013-07-23 21:20:00,0,48104,0,0.00,0,0,0,0,41906,50000,2643,50000,0,0,0,0,0.00,0.00,0.00,0.00
2013-07-23 21:30:00,0,43953,0,0.00,0,0,0,0,35814,50000,5422,45164,0,0,0,0,0.00,0.00,0.00,0.00
2013-07-23 21:40:00,0,46166,0,0.00,0,0,0,0,41464,50000,2867,46566,0,0,0,0,0.00,0.00,0.00,0.00
2013-07-23 21:50:00,0,47443,0,0.00,0,0,0,0,38564,50000,3930,50000,0,0,0,0,0.00,0.00,0.00,0.00
2013-07-23 22:00:00,0,44298,0,0.00,0,0,0,0,37217,50000,4145,44477,0,0,0,0,0.00,0.00,0.00,0.00
2013-07-23 22:10:00,0,40634,0,0.00,0,0,0,0,34628,50000,5062,39434,0,0,0,0,0.00,0.00,0.00,0.00
2013-07-23 22:20:00,0,45109,0,0.00,0,0,0,0,34826,50000,4803,46891,0,0,0,0,0.00,0.00,0.00,0.00
2013-07-23 22:30:00,0,46935,0,0.00,0,0,0,0,41443,50000,3357,48798,0,0,0,0,0.00,0.00,0.00,0.00
2013-07-23 22:40:00,0,43870,0,0.00,0,0,0,0,34157,50000,5212,43592,0,0,0,0,0.00,0.00,0.00,0.00
2013-07-23 22:50:00,0,42692,0,0.00,0,0,0,0,33443,50000,5682,44498,0,0,0,0,0.00,0.00,0.00,0.00
2013-07-23 23:00:00,0,36750,0,0.00,0,0,0,0,11220,46805,10301,39698,0,0,0,0,0.00,0.00,0.00,0.00
2013-07-23 23:10:00,0,46270,0,0.00,0,0,0,0,32382,50000,5475,48890,0,0,0,0,0.00,0.00,0.00,0.00
2013-07-23 23:20:00,0,46269,0,0.00,0,0,0,0,38555,50000,4414,48452,0,0,0,0,0.00,0.00,0.00,0.00
2013-07-23 23:30:00,0,42800,0,0.00,0,0,0,0,31415,50000,7696,45530,0,0,0,0,0.00,0.00,0.00,0.00
2013-07-23 23:40:00,0,44999,0,0.00,0,0,0,0,33488,50000,6238,48532,0,0,0,0,0.00,0.00,0.00,0.00
2013-07-23 23:50:00,0,47134,0,0.00,0,0,0,0,36567,50000,3991,48810,0,0,0,0,0.00,0.00,0.00,0.00
